^^
Station Historical Data
 
Daily Summary for November 17, 2019 Units:  Metric    English   Both
Next Day »
Daily Weekly Monthly Yearly Custom
  Current: High: Low: Average:
Temperature: -9.9 °C -8.8 °C -9.9 °C -9.5 °C
Dew Point: -12.2 °C -12.2 °C -12.9 °C -12.6 °C
Humidity: 83% 83% 74% 78%
Wind Speed: 0.0km/h 1.6km/h 0.0km/h 0.2km/h
Wind Gust: 1.6km/h 4.8km/h - -
WindCalm - - SSW
Pressure: 1033.7 hPa 1035.5 hPa 1033.7 hPa -
Precipitation: 0.0 mm      
Historical Graphs
 
 
These are the results of the file assigned to $inboxfile in your configuration

Weather Camera

Quebec Radar

This and the area below are optional for those who wish to use them.



This begins the code in the file assigned to $outboxfile in your configuration
 height=
Find more about Weather in Pointe-Claire, CA
Click for weather forecast
Tabular Data for November 17, 2019
Time Temperature Dew Point Pressure Wind Wind Speed Wind Gust Humidity Rainfall Rate (Hourly) solar Conditions
00:00 -8.8 °C -12.6 °C 1035.5 hPa Calm     74% 0.0 mm 0.00 W/m2 SKC
00:05 -8.8 °C -12.5 °C 1035.4 hPa Calm     75% 0.0 mm 0.00 W/m2 SKC
00:10 -8.9 °C -12.6 °C 1035.4 hPa Calm     75% 0.0 mm 0.00 W/m2 SKC
00:15 -9.0 °C -12.6 °C 1035.3 hPa Calm     75% 0.0 mm 0.00 W/m2 FEW
00:20 -9.1 °C -12.8 °C 1035.3 hPa Calm     74% 0.0 mm 0.00 W/m2 FEW
00:25 -9.1 °C -12.7 °C 1035.2 hPa Calm     75% 0.0 mm 0.00 W/m2 FEW
00:30 -9.2 °C -12.8 °C 1035.1 hPa Calm     75% 0.0 mm 0.00 W/m2 FEW
00:35 -9.2 °C -12.8 °C 1035.1 hPa Calm     75% 0.0 mm 0.00 W/m2 FEW
00:40 -9.3 °C -12.9 °C 1035.1 hPa Calm     75% 0.0 mm 0.00 W/m2 FEW
00:45 -9.3 °C -12.8 °C 1035.1 hPa Calm     76% 0.0 mm 0.00 W/m2 FEW
00:50 -9.4 °C -12.8 °C 1035.2 hPa Calm     76% 0.0 mm 0.00 W/m2 FEW
00:55 -9.4 °C -12.8 °C 1035.1 hPa Calm     76% 0.0 mm 0.00 W/m2 FEW
01:00 -9.3 °C -12.8 °C 1035.0 hPa Calm     76% 0.0 mm 0.00 W/m2 FEW
01:05 -9.3 °C -12.8 °C 1035.0 hPa Calm     76% 0.0 mm 0.00 W/m2 FEW
01:10 -9.4 °C -12.8 °C 1034.9 hPa Calm     76% 0.0 mm 0.00 W/m2 FEW
01:15 -9.4 °C -12.8 °C 1034.9 hPa Calm     76% 0.0 mm 0.00 W/m2 SKC
01:20 -9.4 °C -12.7 °C 1034.8 hPa Calm     77% 0.0 mm 0.00 W/m2 SKC
01:25 -9.4 °C -12.7 °C 1034.7 hPa Calm     77% 0.0 mm 0.00 W/m2 SKC
01:30 -9.4 °C -12.9 °C 1034.7 hPa Calm     76% 0.0 mm 0.00 W/m2 SKC
01:35 -9.5 °C -12.8 °C 1034.7 hPa Calm     77% 0.0 mm 0.00 W/m2 SKC
01:40 -9.6 °C -12.9 °C 1034.7 hPa Calm     77% 0.0 mm 0.00 W/m2 SKC
01:45 -9.7 °C -12.8 °C 1034.7 hPa Calm     78% 0.0 mm 0.00 W/m2 SKC
01:50 -9.7 °C -12.8 °C 1034.5 hPa Calm     78% 0.0 mm 0.00 W/m2 SKC
01:55 -9.7 °C -12.8 °C 1034.5 hPa Calm     78% 0.0 mm 0.00 W/m2 SKC
02:00 -9.7 °C -12.8 °C 1034.5 hPa Calm     78% 0.0 mm 0.00 W/m2 SKC
02:05 -9.7 °C -12.6 °C 1034.5 hPa Calm     79% 0.0 mm 0.00 W/m2 SKC
02:10 -9.7 °C -12.6 °C 1034.4 hPa Calm     79% 0.0 mm 0.00 W/m2 SKC
02:15 -9.7 °C -12.6 °C 1034.3 hPa Calm     79% 0.0 mm 0.00 W/m2 SKC
02:20 -9.7 °C -12.6 °C 1034.4 hPa Calm     79% 0.0 mm 0.00 W/m2 SKC
02:25 -9.7 °C -12.6 °C 1034.3 hPa Calm     79% 0.0 mm 0.00 W/m2 SKC
02:30 -9.7 °C -12.7 °C 1034.2 hPa Calm     79% 0.0 mm 0.00 W/m2 SKC
02:35 -9.7 °C -12.7 °C 1034.2 hPa SW 1.6 km/h 4.8 km/h 79% 0.0 mm 0.00 W/m2 SKC
02:40 -9.7 °C -12.7 °C 1034.2 hPa SW 1.6 km/h 4.8 km/h 79% 0.0 mm 0.00 W/m2 SKC
02:45 -9.7 °C -12.7 °C 1034.2 hPa SW 1.6 km/h 3.2 km/h 79% 0.0 mm 0.00 W/m2 SKC
02:50 -9.7 °C -12.5 °C 1034.1 hPa SW 1.6 km/h 3.2 km/h 80% 0.0 mm 0.00 W/m2 SKC
02:55 -9.7 °C -12.5 °C 1034.1 hPa Calm   1.6 km/h 80% 0.0 mm 0.00 W/m2 SKC
03:00 -9.7 °C -12.5 °C 1034.1 hPa West 1.6 km/h 3.2 km/h 80% 0.0 mm 0.00 W/m2 SKC
03:05 -9.7 °C -12.5 °C 1033.9 hPa Calm   3.2 km/h 80% 0.0 mm 0.00 W/m2 SKC
03:10 -9.7 °C -12.4 °C 1033.9 hPa NW 1.6 km/h 4.8 km/h 81% 0.0 mm 0.00 W/m2 SKC
03:15 -9.8 °C -12.4 °C 1033.8 hPa North 1.6 km/h 3.2 km/h 81% 0.0 mm 0.00 W/m2 FEW
03:20 -9.8 °C -12.3 °C 1033.8 hPa Calm   4.8 km/h 82% 0.0 mm 0.00 W/m2 FEW
03:25 -9.8 °C -12.3 °C 1033.8 hPa Calm   3.2 km/h 82% 0.0 mm 0.00 W/m2 FEW
03:30 -9.8 °C -12.3 °C 1033.8 hPa Calm     82% 0.0 mm 0.00 W/m2 FEW
03:35 -9.8 °C -12.3 °C 1033.8 hPa Calm     82% 0.0 mm 0.00 W/m2 FEW
03:40 -9.8 °C -12.2 °C 1033.7 hPa Calm     83% 0.0 mm 0.00 W/m2 FEW
03:45 -9.9 °C -12.2 °C 1033.7 hPa Calm   1.6 km/h 83% 0.0 mm 0.00 W/m2 FEW
Pointe-Claire Weather